STELLA

Satellite information

Favourite Embed

Satellite Type and Status

PAYLOADIN ORBIT

Key statistics

Satellite STELLA at a glance.

Uptime

11607

Days in orbit

Revolutions

≈ 14.3

Per day

Orbit

SSO

Sun Synchronous Orbit

Inclination

98.8

Latest

Satellite identification and parameters

Extended collection of information and parameters for STELLA.

Object identification

Identified? True

Debris? False

Object name: STELLA

International designator: 1993-061B

Object number (NORAD): 22824

Object ID (CCSDS): 22824

Country: FRANCE (FR)

Current information (Y/N): Y

RCS size: MEDIUM

Orbital parameters

Period: 100.879 minutes

Inclination: 98.8233 deg

SMA: 7178.381 km

Apoapsis: 805.137 km

Periapsis: 795.355 km

RAAN: 244.7007 deg

Eccentricy: 0.0006814

Argument of periapsis: 153.4678 deg

Mean anomaly: 328.7952 deg

Mean motion: 14.27456929 rev/day

Mean motion (dot): -0.00000027 rev/day2

B* drag term: 0.0000075638 1/REarth

Two-line elements (TLE)

Creation date: July 6, 2025, 6:05 p.m.

Reference frame: TEME

Reference center: EARTH

Epoch: July 6, 2025, 3:22 p.m. UTC

TLE line 0: 0 STELLA

TLE line 1: 1 22824U 93061B 25187.64054418 -.00000027 00000-0 75638-5 0 9996

TLE line 2: 2 22824 98.8233 244.7007 0006814 153.4678 328.7952 14.27456929655472

Live tracking on map

Real-time ground track for satellite STELLA.

In-orbit conjunctions

A list of the most updated potential collisions computed for object STELLA.

Target Orbit TCA Probability of collision Miss distance Type
CZ-6A DEB LEO 2025-06-23 16:51:30 0.0008462483 440.0 (m) DEBRIS
NOAA 16 DEB SSO 2025-06-18 04:46:31 0.0002425192 709.0 (m) DEBRIS
FENGYUN 1C DEB SSO 2025-06-05 18:11:11 0.000121966 929.0 (m) DEBRIS
DELTA 1 DEB SSO 2025-05-06 14:50:30 0.000229463 637.0 (m) DEBRIS
CZ-6A DEB SSO 2024-11-06 02:34:53 0.0002572639 893.0 (m) DEBRIS

Associated space launch

The satellites SPOT 1, 2 and 3 (Satellite Probatoire de l'Observation de la Terre) were the first generation of SPOT earth observation satellites operated by Spot Image.

STELLA was lifted into orbit during the mission ‘Ariane 40 | SPOT 3’, on board a Ariane 40 space rocket.

The launch took place on Sept. 26, 1993, 1:45 a.m. from Ariane Launch Area 2.

For more information about the launch, click the button.

Launch to space Ariane 40 | SPOT 3
Ariane 40 | SPOT 3

Agency: N/A

Status: Launch Successful

Launch date: Sept. 26, 1993, 1:45 a.m. UTC

Rocket: Ariane 40

Launch pad: Ariane Launch Area 2

Location: Guiana Space Centre, French Guiana

...

Latest news about this satellite

There are no fresh news available about this satellite. Check back as we update our databases every day.


Newsletter sign-up

Weekly statistics, charts and insights to help you stay on top of the space industry.